Flag for Montenegro Weather past 2 weeks in Podgorica, Montenegro

Now
59 °F

Passing clouds.


Feels Like: 58 °F
Forecast: 54 / 82 °F
Wind: 7 mph from North

Location: Podgorica Titograd

Current Time: May 29, 2015 at 7:20:45 AM

Latest Report: May 29, 2015 at 7:00 AM


Visibility: N/A

Pressure: 29.98 "Hg

Humidity: 45%

Dew point: 37 °F

Location of PodgoricaLocation

Historic Weather in Podgorica — Graph

°F

Podgorica temperature yesterday

Maximum temperature yesterday: 72 °F (at 1:00 PM)
Minimum temperature yesterday: 59 °F (at 5:00 AM)
Average temperature yesterday: 65 °F

Past Weeks' High & Low Weather Summary

 TemperatureHumidityPressure
High88 °F (May 17, 2:00 PM)100% (May 18, 9:30 PM)30.07 "Hg (May 18, 9:30 PM)
Low52 °F (May 29, 4:30 AM)18% (May 16, 11:30 AM)29.71 "Hg (May 19, 3:30 PM)
Average69 °F59%29.88 "Hg
* Reported May 14 6:00 AM — May 29 6:30 AM, Podgorica, Weather by CustomWeather, © 2015

Note: Actual official high and low records may vary slightly from our data, if they occured in-between our weather recording intervals... More about our weather records

Advertising

Podgorica weather history for previous 24 hours

 ConditionsComfort  
Time TempWeatherWind HumidityBarometerVisibility
6:30 AM
Fri, May 29
57 °FSunny.9 mph48%29.98 "Hg10 mi
6:00 AM55 °FClear.9 mph51%29.98 "Hg10 mi
5:30 AM54 °FClear.8 mph51%29.95 "Hg10 mi
5:00 AM54 °FClear.7 mph51%29.95 "Hg10 mi
4:30 AM52 °FClear.8 mph58%29.95 "Hg10 mi
4:00 AM54 °FClear.8 mph54%29.95 "Hg10 mi
3:30 AM54 °FClear.8 mph54%29.95 "Hg10 mi
3:00 AM54 °FClear.7 mph54%29.95 "Hg10 mi
2:30 AM55 °FClear.7 mph51%29.95 "Hg10 mi
2:00 AM55 °FClear.7 mph51%29.98 "Hg10 mi
1:30 AM57 °FPassing clouds.7 mph48%29.98 "HgN/A
12:00 AM61 °FClear.10 mph42%29.98 "Hg10 mi
11:30 PM
Thu, May 28
61 °FClear.12 mph42%29.98 "Hg10 mi
11:00 PM61 °FClear.12 mph39%29.98 "Hg10 mi
10:30 PM61 °FClear.12 mph42%29.95 "Hg10 mi
10:00 PM61 °FPassing clouds.14 mph42%29.95 "HgN/A
9:30 PM63 °FPassing clouds.15 mph39%29.95 "HgN/A
9:00 PM63 °FPassing clouds.15 mph39%29.92 "HgN/A
8:30 PM63 °FPassing clouds.15 mph39%29.92 "HgN/A
8:00 PM64 °FPassing clouds.13 mph37%29.92 "HgN/A
7:30 PM66 °FPassing clouds.13 mph35%29.92 "HgN/A
7:00 PM66 °FPassing clouds.15 mph35%29.92 "HgN/A
6:30 PM68 °FScattered clouds.16 mph33%29.89 "HgN/A
6:00 PM70 °FScattered clouds.16 mph31%29.89 "HgN/A
5:30 PM70 °FScattered clouds.15 mph31%29.89 "HgN/A
5:00 PM70 °FPassing clouds.17 mph31%29.89 "HgN/A
4:30 PM70 °FPassing clouds.20 mph31%29.89 "HgN/A
4:00 PM72 °FPassing clouds.18 mph29%29.89 "HgN/A
3:30 PM72 °FPassing clouds.20 mph29%29.89 "HgN/A
3:00 PM72 °FPassing clouds.21 mph29%29.92 "HgN/A
2:00 PM72 °FPassing clouds.18 mph29%29.92 "HgN/A
1:30 PM72 °FPassing clouds.15 mph29%29.92 "HgN/A
1:00 PM72 °FPassing clouds.16 mph29%29.92 "HgN/A
12:30 PM70 °FPassing clouds.14 mph31%29.92 "HgN/A
12:00 PM70 °FPassing clouds.15 mph31%29.92 "HgN/A
11:30 AM70 °FPassing clouds.16 mph31%29.92 "HgN/A
11:00 AM68 °FPassing clouds.16 mph30%29.92 "HgN/A
10:30 AM68 °FPassing clouds.16 mph33%29.92 "HgN/A
10:00 AM68 °FPassing clouds.16 mph33%29.92 "HgN/A
9:30 AM66 °FSunny.16 mph35%29.92 "Hg10 mi
9:00 AM66 °FSunny.16 mph35%29.92 "Hg10 mi
8:30 AM64 °FPassing clouds.15 mph37%29.92 "HgN/A
8:00 AM64 °FPassing clouds.13 mph37%29.92 "HgN/A
7:30 AM63 °FPassing clouds.13 mph39%29.92 "HgN/A
7:00 AM63 °FPassing clouds.12 mph39%29.92 "HgN/A
Weather by CustomWeather, © 2015

See weather overviewHow to use our weather pages